Regional Weather Roundup
Issued by NWS

Home | Current Version | Previous Version | Text Only | Print | Product List | Glossary Off
Versions: 1 2 3 4 5 6 7 8 9 10 11 12 13 14 15 16 17 18 19 20 21 22 23 24 25 26 27 28 29 30 31 32 33 34 35 36 37 38 39 40 41 42 43 44 45 46 47 48 49 50

000
ASUS43 KTOP 250108
RWRKS

WEATHER ROUNDUP FOR KANSAS
NATIONAL WEATHER SERVICE GOODLAND KS
800 PM CDT WED AUG 24 2016

NOTE:  "FAIR" INDICATES FEW OR NO CLOUDS BELOW 12,000 FEET WITH NO
SIGNIFICANT WEATHER AND/OR OBSTRUCTIONS TO VISIBILITY.

KSZ001>006-013>018-027>032-041>047-250200-
NORTHWEST KANSAS

CITY           SKY/WX    TMP DP  RH WIND       PRES   REMARKS
GOODLAND       CLOUDY    65  45  48 E12       30.16R
HAYS           CLOUDY    66  55  68 N14       30.06R
HILL CITY      MOCLDY    67  55  65 NE7       30.11S
RUSSELL        CLOUDY    67  61  81 N15       30.05R
$$

KSZ061>065-074>080-084>089-250200-
SOUTHWEST KANSAS

CITY           SKY/WX    TMP DP  RH WIND       PRES   REMARKS
DODGE CITY     CLOUDY    71  64  78 NE13      30.03R
ELKHART          N/A     64  59  84 E7          N/A
GARDEN CITY    CLOUDY    69  60  73 NE22G30   30.05R
GREAT BEND     PTCLDY    73  61  64 NE10      30.03R
LIBERAL        CLOUDY    73  57  56 W9        30.05R
PRATT          CLOUDY    75  66  73 NE8       30.01R
$$

KSZ066>073-081>083-090>101-250200-
SOUTHEAST KANSAS

CITY           SKY/WX    TMP DP  RH WIND       PRES   REMARKS
CHANUTE        CLEAR     83  70  64 S8        29.93R
COFFEYVILLE    CLEAR     89  68  49 S13       29.95R
HUTCHINSON     PTCLDY    76  70  82 N13G21    29.99R
MEDICINE LODGE   N/A     78  69  73 N5        29.95R
NEWTON         CLOUDY    72  70  93 NE8       29.99S
PARSONS        CLEAR     87  67  51 VRB7      29.96R
WICHITA INTL   CLOUDY    81  69  67 NE9       29.97R
WICHITA JABRA  CLOUDY    75  70  84 NE7       29.98R
WICHITA MCCONL CLOUDY    78  68  70 NE10      29.98R
WINFIELD       CLOUDY    76  68  76 S14       30.00R
$$

KSZ007>012-019>026-033>040-048>060-102>105-250200-
NORTHEAST KANSAS

CITY           SKY/WX    TMP DP  RH WIND       PRES   REMARKS
CONCORDIA      CLOUDY    64  61  90 N6        30.06R
EMPORIA        CLOUDY    73  69  87 NW8       29.98F
LAWRENCE       TSTM      72  68  87 SW70G83   29.95R FOG
MANHATTAN      CLOUDY    72  65  78 N9G18     30.01R
MARYSVILLE     LGT RAIN  64  63  94 NE9G16    30.03F
OLATHE IND     TSTM      75  68  78 S17       29.95S
OLATHE EXE     TSTM      70  66  87 E21G49    29.97R SQUALL  VSB 1/2
SALINA         PTCLDY    73  63  70 NE9       30.02R
TOPEKA BILLARD LGT RAIN  73  69  87 N8        29.98R
TOPEKA FORBES  HVY RAIN  75  70  84 N7        29.98R
$$




USA.gov is the U.S. government's official web portal to all federal, state and local government web resources and services.